Weather History for KMIW - November, 2012

Change the Weather History Date:

Tuesday, November 20, 2012

  Actual Average Record
Temperature  
Mean Temperature 45 °F 34 °F  
Max Temperature 58 °F 44 °F - ()
Min Temperature 31 °F 24 °F - ()
Degree Days  
Heating Degree Days 20 31  
Month to date heating degree days 440 521  
Since 1 July heating degree days 1070 1154  
Cooling Degree Days 0 0  
Month to date cooling degree days 0 0  
Year to date cooling degree days 1082 728  
Moisture  
Dew Point 36 °F    
Average Humidity 79    
Maximum Humidity 100    
Minimum Humidity 57    
Precipitation  
Precipitation 0.00 in 0.05 in - ()
Month to date precipitation 1.11 1.81  
Sea Level Pressure  
Sea Level Pressure 30.14 in    
Wind  
Wind Speed 5 mph (WNW)    
Max Wind Speed 9 mph    
Max Gust Speed 12 mph    
Visibility 4 miles    
Events Fog    
T = Trace of Precipitation, MM = Missing Value Source: NWS Daily Summary

Daily Weather History Graph

Daily Weather History Graph

Search for Another Location

Airport or City:

Trip Planner

Search our weather history database for the weather conditions in past years. The results will help you decide how hot, cold, wet, or windy it might be!

Date:

Astronomy

Nov. 20, 2012 Rise Set
Actual Time 7:08 AM CST 4:45 PM CST
Civil Twilight 6:38 AM CST 5:16 PM CST
Nautical Twilight 6:03 AM CST 5:50 PM CST
Astronomical Twilight 5:30 AM CST 6:23 PM CST
Moon 12:39 PM CST (11/20) No Moon Set
Length of Visible Light 10h 38m
Length of Day
9h 37m
First Quarter, 51% of the Moon is Illuminated
Nov 20
First Quarter
Nov 28
Full
Dec 6
Last Quarter
Dec 13
New
Dec 19
First Quarter

Hourly Weather History & Observations

Time (CST) Temp. Windchill Dew Point Humidity Pressure Visibility Wind Dir Wind Speed Gust Speed Precip Events Conditions
12:53 AM 36.0 °F - 35.1 °F 97% 30.05 in 0.2 mi Calm Calm - N/A Fog Fog
1:53 AM 34.0 °F 28.8 °F 34.0 °F 100% 30.07 in 0.2 mi NW 5.8 mph - N/A Fog Fog
2:53 AM 36.0 °F 33.3 °F 36.0 °F 100% 30.09 in 0.2 mi North 3.5 mph - N/A Fog Fog
3:53 AM 34.0 °F 31.0 °F 34.0 °F 100% 30.09 in 0.5 mi NNW 3.5 mph - N/A Fog Fog
4:53 AM 34.0 °F 31.0 °F 34.0 °F 100% 30.11 in 0.2 mi NNW 3.5 mph - N/A Fog Fog
5:53 AM 33.1 °F 26.9 °F 33.1 °F 100% 30.13 in 1.0 mi NNW 6.9 mph - N/A   Mist
6:11 AM 32.0 °F 26.4 °F 32.0 °F 100% 30.11 in 1.2 mi NW 5.8 mph - N/A   Partly Cloudy
6:14 AM 32.0 °F 27.5 °F 32.0 °F 100% 30.11 in 0.8 mi WNW 4.6 mph - N/A   Mist
6:51 AM 32.0 °F 26.4 °F 32.0 °F 100% 30.12 in 1.2 mi NW 5.8 mph - N/A   Scattered Clouds
6:53 AM 32.0 °F 26.4 °F 32.0 °F 100% 30.14 in 1.8 mi NW 5.8 mph - N/A   Partly Cloudy
7:00 AM 32.0 °F 26.4 °F 32.0 °F 100% 30.12 in 2.0 mi NW 5.8 mph - N/A   Clear
7:16 AM 30.2 °F 24.3 °F 30.2 °F 100% 30.13 in 1.2 mi WNW 5.8 mph - N/A   Clear
7:53 AM 32.0 °F 28.7 °F 32.0 °F 100% 30.17 in 1.5 mi NW 3.5 mph - N/A   Clear
8:28 AM 33.8 °F 30.8 °F 33.8 °F 100% 30.15 in 2.0 mi WNW 3.5 mph - N/A   Clear
8:53 AM 36.0 °F 30.3 °F 35.1 °F 97% 30.17 in 3.0 mi NW 6.9 mph - N/A   Clear
9:53 AM 43.0 °F 38.8 °F 39.9 °F 89% 30.18 in 5.0 mi NNW 6.9 mph - N/A   Clear
10:53 AM 46.9 °F - 42.1 °F 83% 30.18 in 6.0 mi NW 4.6 mph - N/A   Haze
11:53 AM 52.0 °F - 44.1 °F 74% 30.17 in 7.0 mi NW 4.6 mph - N/A   Clear
12:53 PM 55.0 °F - 44.1 °F 67% 30.14 in 9.0 mi Variable 3.5 mph - N/A   Clear
1:53 PM 57.0 °F - 43.0 °F 59% 30.14 in 10.0 mi West 6.9 mph - N/A   Clear
2:53 PM 57.9 °F - 43.0 °F 58% 30.14 in 10.0 mi WNW 9.2 mph - N/A   Clear
3:53 PM 55.9 °F - 43.0 °F 62% 30.15 in 10.0 mi WNW 5.8 mph - N/A   Clear
4:53 PM 51.1 °F - 41.0 °F 68% 30.16 in 10.0 mi West 4.6 mph - N/A   Clear
5:53 PM 48.9 °F - 39.9 °F 71% 30.17 in 10.0 mi WSW 3.5 mph - N/A   Clear
6:53 PM 43.0 °F - 37.9 °F 82% 30.18 in 9.0 mi Calm Calm - N/A   Clear
7:53 PM 36.0 °F 32.1 °F 34.0 °F 93% 30.19 in 6.0 mi SE 4.6 mph - N/A   Clear
8:53 PM 36.0 °F 33.3 °F 34.0 °F 93% 30.18 in 5.0 mi South 3.5 mph - N/A   Clear
9:53 PM 39.0 °F 35.7 °F 37.0 °F 93% 30.17 in 5.0 mi South 4.6 mph - N/A   Clear
10:53 PM 36.0 °F 32.1 °F 35.1 °F 97% 30.17 in 4.0 mi South 4.6 mph - N/A   Clear
11:53 PM 32.0 °F 26.4 °F 32.0 °F 100% 30.17 in 3.0 mi SE 5.8 mph - N/A   Clear